Location: Columbus
(35.2256°N, 82.1549°W)
Time: 00:14:37
(UTC-05:00)

Envisat - Pass Details

Date: 06 December 2021
Orbit: 764 x 766 km, 98.2° (Epoch: 25 January)

Event Time Altitude Azimuth Distance (km) Brightness Sun altitude
Rises 06:00:16 0° 3° (N) 3,236 6.1 -16.6°
Reaches altitude 10° 06:02:41 10° 356° (N) 2,306 5.3 -16.1°
Maximum altitude 06:07:24 40° 288° (WNW) 1,112 3.3 -15.2°
Drops below altitude 10° 06:12:06 10° 220° (SW) 2,292 5.2 -14.3°
Sets 06:14:30 0° 213° (SSW) 3,214 6.1 -13.8°
